Regional Weather Roundup
Issued by NWS Sioux Falls, SD

Home | Current Version | Previous Version | Graphics & Text | Print | Product List | Glossary On
Versions: 1 2 3 4 5 6 7 8 9 10 11 12 13 14 15 16 17 18 19 20 21 22 23 24 25 26 27 28 29 30 31 32 33 34 35 36 37 38 39 40 41 42 43 44 45 46 47 48 49 50
000
ASUS43 KFSD 271402
RWRFSD

WEATHER ROUNDUP FOR SE SOUTH DAKOTA/SW MINNESOTA/NW IOWA
NATIONAL WEATHER SERVICE SIOUX FALLS SD
900 AM CDT WED JUL 27 2016

NOTE: "FAIR" INDICATES FEW OR NO CLOUDS BELOW 12,000 FEET WITH NO
SIGNIFICANT WEATHER AND OR OBSTRUCTIONS TO VISIBILITY.


SDZ038>040-050-052>070-271500-
SOUTHEAST SOUTH DAKOTA

CITY           SKY/WX    TMP DP  RH WIND       PRES   REMARKS
BROOKINGS      CLOUDY    68  65  90 NW3       29.99R
CHAMBERLAIN    SUNNY     73  64  74 NW7       30.03S
HURON          SUNNY     71  64  78 N12       30.01R
MADISON        FAIR      68  68 100 N6        30.00R
MITCHELL       SUNNY     75  66  73 NW12      30.01R
SIOUX FALLS    PTSUNNY   74  67  78 N7        29.97F
WINNER         FAIR      72  61  68 W5        30.04S
YANKTON        SUNNY     73  61  64 W9        30.00R
$$

MNZ071-072-080-081-089-090-097-098-271500-
SOUTHWEST MINNESOTA

CITY           SKY/WX    TMP DP  RH WIND       PRES   REMARKS
FAIRMONT       CLOUDY    70  64  83 S7        29.97F
JACKSON        CLOUDY    72  64  78 SW8       30.00S
LUVERNE        CLOUDY    70  63  78 CALM      29.99S
MARSHALL       CLOUDY    70  68  93 CALM      29.96S
MONTEVIDEO     CLOUDY    70  68  94 N10       29.99R
REDWOOD FALLS  CLOUDY    73  67  81 S3        29.93F
TRACY          CLOUDY    73  69  87 SW5       29.96F
WINDOM         PTSUNNY   73  66  78 S6        29.99R
WORTHINGTON    CLOUDY    71  67  87 S6        29.99S
$$

IAZ001>003-012>014-020>022-031-032-NEZ013-014-SDZ071-271500-
NORTHWEST IOWA

CITY           SKY/WX    TMP DP  RH WIND       PRES   REMARKS
CHEROKEE       LGT RAIN  69  68  98 CALM      30.01R
DENISON        LGT RAIN  70  68  94 CALM      30.00R
ESTHERVILLE    CLOUDY    69  67  93 CALM      29.99R
LE MARS        CLOUDY    73  68  83 S3        30.01S
SHELDON        CLOUDY    72  70  94 CALM      29.97F
SIOUX CITY     CLOUDY    73  67  81 E5        30.00R
SPENCER        CLOUDY    70  66  87 SW3       30.00S
STORM LAKE     CLOUDY    68  66  94 SW5       30.03R
$$

ABBREVIATIONS USED IN REMARKS
   TC - TEMPERATURE IN CELSIUS
  WCI - WIND CHILL INDEX
   HX - HEAT INDEX
  VSB - VISIBILITY




USA.gov is the U.S. government's official web portal to all federal, state and local government web resources and services.